Location: Bailleul
(50.3375°N, 2.8513°E)
Time: 15:11:40
(UTC+00:00)

GEOS 3 Rocket - Pass Details

Date: 16 June 2021
Orbit: 780 x 839 km, 115.0° (Epoch: 05 August)

Event Time Altitude Azimuth Distance (km) Brightness Sun altitude
Exits shadow 22:36:02 22° 157° (SSE) 1,777 4.8 -14.5°
Maximum altitude 22:39:33 62° 232° (SW) 942 3.8 -14.7°
Drops below altitude 10° 22:44:51 10° 313° (NW) 2,452 7.0 -14.9°
Sets 22:47:12 0° 317° (NW) 3,383 8.0 -15.0°
